When you browse on this site, cookies collect data to enhance your experience and personalize the content and advertising you see.
Visit our Privacy Policy to learn more. By continuing to use the site, you agree to this use of cookies and data.
  • în România
  • Lista ţărilor
  • Pe 7 zile
  • Temperatura apei
  • Meteo pe hartă
  • Widget-uri
  • user-avatar
    Intrare

    Meteo pe oră la Dori

    Astăzi, 13 Decembrie, Vineri

    Timp Temperatura Precipitaţii Vânt Presiune Umiditate
    00:00 +24°C° 0 mm 3 m/s 735 mmHg 15%
    01:00 +24°C° 0 mm 3 m/s 735 mmHg 16%
    02:00 +22°C° 0 mm 3 m/s 735 mmHg 16%
    03:00 +22°C° 0 mm 3 m/s 734 mmHg 16%
    04:00 +22°C° 0 mm 3 m/s 735 mmHg 17%
    05:00 +21°C° 0 mm 4 m/s 735 mmHg 18%
    06:00 +20°C° 0 mm 4 m/s 736 mmHg 19%
    07:00 +23°C° 0 mm 5 m/s 736 mmHg 18%
    08:00 +26°C° 0 mm 6 m/s 737 mmHg 17%
    09:00 +28°C° 0 mm 7 m/s 737 mmHg 15%
    10:00 +30°C° 0 mm 7 m/s 737 mmHg 14%
    11:00 +33°C° 0 mm 7 m/s 737 mmHg 13%
    12:00 +35°C° 0 mm 7 m/s 736 mmHg 11%
    13:00 +35°C° 0 mm 7 m/s 736 mmHg 11%
    14:00 +36°C° 0 mm 6 m/s 735 mmHg 10%
    15:00 +36°C° 0 mm 6 m/s 734 mmHg 10%
    16:00 +34°C° 0 mm 5 m/s 734 mmHg 11%
    17:00 +32°C° 0 mm 5 m/s 735 mmHg 12%
    18:00 +29°C° 0 mm 4 m/s 735 mmHg 14%
    19:00 +28°C° 0 mm 4 m/s 735 mmHg 14%
    20:00 +27°C° 0 mm 4 m/s 736 mmHg 15%
    21:00 +26°C° 0 mm 4 m/s 736 mmHg 15%
    22:00 +26°C° 0 mm 4 m/s 736 mmHg 15%
    23:00 +25°C° 0 mm 4 m/s 736 mmHg 15%

    Mâine, 14 Decembrie, Sâmbătă

    Timp Temperatura Precipitaţii Vânt Presiune Umiditate
    00:00 +23°C° 0 mm 4 m/s 735 mmHg 15%
    01:00 +23°C° 0 mm 4 m/s 735 mmHg 15%
    02:00 +22°C° 0 mm 4 m/s 735 mmHg 16%
    03:00 +22°C° 0 mm 4 m/s 735 mmHg 16%
    04:00 +21°C° 0 mm 4 m/s 735 mmHg 15%
    05:00 +20°C° 0 mm 4 m/s 735 mmHg 14%
    06:00 +20°C° 0 mm 4 m/s 735 mmHg 13%
    07:00 +22°C° 0 mm 5 m/s 736 mmHg 11%
    08:00 +24°C° 0 mm 6 m/s 737 mmHg 8%
    09:00 +27°C° 0 mm 6 m/s 737 mmHg 5%
    10:00 +29°C° 0 mm 6 m/s 737 mmHg 6%
    11:00 +32°C° 0 mm 6 m/s 737 mmHg 6%
    12:00 +34°C° 0 mm 6 m/s 736 mmHg 6%
    13:00 +35°C° 0 mm 6 m/s 736 mmHg 6%
    14:00 +35°C° 0 mm 6 m/s 735 mmHg 6%
    15:00 +36°C° 0 mm 5 m/s 735 mmHg 6%
    16:00 +33°C° 0 mm 5 m/s 735 mmHg 7%
    17:00 +30°C° 0 mm 4 m/s 735 mmHg 8%
    18:00 +28°C° 0 mm 3 m/s 735 mmHg 9%
    19:00 +27°C° 0 mm 4 m/s 735 mmHg 10%
    20:00 +26°C° 0 mm 4 m/s 736 mmHg 10%
    21:00 +25°C° 0 mm 4 m/s 736 mmHg 10%
    22:00 +23°C° 0 mm 4 m/s 736 mmHg 10%
    23:00 +24°C° 0 mm 3 m/s 736 mmHg 11%

    Poimâine, 15 Decembrie, Duminică

    Timp Temperatura Precipitaţii Vânt Presiune Umiditate
    00:00 +22°C° 0 mm 3 m/s 736 mmHg 11%
    01:00 +22°C° 0 mm 3 m/s 735 mmHg 11%
    02:00 +21°C° 0 mm 3 m/s 735 mmHg 10%
    03:00 +21°C° 0 mm 3 m/s 735 mmHg 10%
    04:00 +20°C° 0 mm 3 m/s 735 mmHg 10%
    05:00 +20°C° 0 mm 4 m/s 735 mmHg 10%
    06:00 +19°C° 0 mm 4 m/s 735 mmHg 10%
    07:00 +21°C° 0 mm 4 m/s 736 mmHg 9%
    08:00 +25°C° 0 mm 5 m/s 736 mmHg 7%
    09:00 +27°C° 0 mm 5 m/s 737 mmHg 6%
    10:00 +29°C° 0 mm 5 m/s 736 mmHg 5%
    11:00 +32°C° 0 mm 5 m/s 736 mmHg 5%
    12:00 +34°C° 0 mm 5 m/s 736 mmHg 4%
    13:00 +35°C° 0 mm 5 m/s 735 mmHg 4%
    14:00 +35°C° 0 mm 5 m/s 734 mmHg 4%
    15:00 +36°C° 0 mm 5 m/s 734 mmHg 4%
    16:00 +33°C° 0 mm 4 m/s 734 mmHg 5%
    17:00 +30°C° 0 mm 4 m/s 734 mmHg 5%
    18:00 +28°C° 0 mm 3 m/s 734 mmHg 6%
    19:00 +27°C° 0 mm 4 m/s 734 mmHg 6%
    20:00 +26°C° 0 mm 4 m/s 735 mmHg 7%
    21:00 +25°C° 0 mm 4 m/s 735 mmHg 7%
    22:00 +23°C° 0 mm 4 m/s 735 mmHg 7%
    23:00 +23°C° 0 mm 4 m/s 735 mmHg 7%

    16 Decembrie, Luni

    Timp Temperatura Precipitaţii Vânt Presiune Umiditate
    00:00 +22°C° 0 mm 3 m/s 735 mmHg 7%
    01:00 +22°C° 0 mm 3 m/s 734 mmHg 7%
    02:00 +21°C° 0 mm 3 m/s 734 mmHg 7%
    03:00 +21°C° 0 mm 3 m/s 734 mmHg 7%
    04:00 +20°C° 0 mm 3 m/s 734 mmHg 8%
    05:00 +20°C° 0 mm 4 m/s 734 mmHg 8%
    06:00 +19°C° 0 mm 4 m/s 734 mmHg 8%
    07:00 +21°C° 0 mm 4 m/s 735 mmHg 8%
    08:00 +25°C° 0 mm 5 m/s 735 mmHg 7%
    09:00 +27°C° 0 mm 6 m/s 736 mmHg 7%
    10:00 +29°C° 0 mm 6 m/s 735 mmHg 6%
    11:00 +32°C° 0 mm 6 m/s 735 mmHg 6%
    12:00 +34°C° 0 mm 6 m/s 734 mmHg 5%
    13:00 +35°C° 0 mm 6 m/s 733 mmHg 5%
    14:00 +35°C° 0 mm 6 m/s 733 mmHg 5%
    15:00 +36°C° 0 mm 5 m/s 732 mmHg 5%
    16:00 +33°C° 0 mm 5 m/s 732 mmHg 6%
    17:00 +30°C° 0 mm 4 m/s 732 mmHg 7%
    18:00 +28°C° 0 mm 3 m/s 732 mmHg 8%
    19:00 +27°C° 0 mm 3 m/s 732 mmHg 8%
    20:00 +26°C° 0 mm 3 m/s 733 mmHg 9%
    21:00 +25°C° 0 mm 4 m/s 733 mmHg 10%
    22:00 +24°C° 0 mm 3 m/s 733 mmHg 10%
    23:00 +24°C° 0 mm 3 m/s 733 mmHg 10%

    17 Decembrie, Marţi

    Timp Temperatura Precipitaţii Vânt Presiune Umiditate
    00:00 +22°C° 0 mm 3 m/s 733 mmHg 10%
    01:00 +22°C° 0 mm 3 m/s 733 mmHg 10%
    02:00 +22°C° 0 mm 3 m/s 732 mmHg 10%
    03:00 +21°C° 0 mm 3 m/s 732 mmHg 11%
    04:00 +21°C° 0 mm 4 m/s 733 mmHg 11%
    05:00 +20°C° 0 mm 4 m/s 733 mmHg 12%
    06:00 +20°C° 0 mm 4 m/s 733 mmHg 12%
    07:00 +22°C° 0 mm 4 m/s 734 mmHg 11%
    08:00 +25°C° 0 mm 5 m/s 734 mmHg 10%
    09:00 +27°C° 0 mm 5 m/s 735 mmHg 9%
    10:00 +29°C° 0 mm 5 m/s 735 mmHg 8%
    11:00 +32°C° 0 mm 6 m/s 734 mmHg 7%
    12:00 +35°C° 0 mm 6 m/s 734 mmHg 6%
    13:00 +35°C° 0 mm 5 m/s 733 mmHg 6%
    14:00 +36°C° 0 mm 4 m/s 733 mmHg 6%
    15:00 +36°C° 0 mm 4 m/s 732 mmHg 5%
    16:00 +34°C° 0 mm 3 m/s 732 mmHg 7%
    17:00 +30°C° 0 mm 3 m/s 732 mmHg 8%
    18:00 +28°C° 0 mm 3 m/s 732 mmHg 9%
    19:00 +27°C° 0 mm 3 m/s 733 mmHg 9%
    20:00 +27°C° 0 mm 3 m/s 733 mmHg 10%
    21:00 +26°C° 0 mm 3 m/s 734 mmHg 10%
    22:00 +26°C° 0 mm 4 m/s 734 mmHg 10%
    23:00 +25°C° 0 mm 4 m/s 734 mmHg 11%

    18 Decembrie, Miercuri

    Timp Temperatura Precipitaţii Vânt Presiune Umiditate
    00:00 +23°C° 0 mm 4 m/s 734 mmHg 11%
    01:00 +23°C° 0 mm 4 m/s 733 mmHg 12%
    02:00 +22°C° 0 mm 4 m/s 733 mmHg 13%
    03:00 +22°C° 0 mm 4 m/s 733 mmHg 14%
    04:00 +21°C° 0 mm 3 m/s 733 mmHg 14%
    05:00 +21°C° 0 mm 3 m/s 733 mmHg 14%
    06:00 +21°C° 0 mm 3 m/s 734 mmHg 15%
    07:00 +23°C° 0 mm 4 m/s 734 mmHg 13%
    08:00 +26°C° 0 mm 5 m/s 735 mmHg 12%
    09:00 +29°C° 0 mm 6 m/s 736 mmHg 10%
    10:00 +32°C° 0 mm 6 m/s 735 mmHg 10%
    11:00 +34°C° 0 mm 6 m/s 735 mmHg 9%
    12:00 +36°C° 0 mm 6 m/s 735 mmHg 8%
    13:00 +36°C° 0 mm 6 m/s 734 mmHg 8%
    14:00 +37°C° 0 mm 5 m/s 733 mmHg 8%
    15:00 +37°C° 0 mm 5 m/s 733 mmHg 8%
    16:00 +35°C° 0 mm 4 m/s 733 mmHg 9%
    17:00 +32°C° 0 mm 4 m/s 733 mmHg 11%
    18:00 +29°C° 0 mm 3 m/s 733 mmHg 12%
    19:00 +28°C° 0 mm 3 m/s 734 mmHg 13%
    20:00 +28°C° 0 mm 3 m/s 734 mmHg 13%
    21:00 +27°C° 0 mm 4 m/s 735 mmHg 14%
    22:00 +26°C° 0 mm 4 m/s 734 mmHg 14%
    23:00 +25°C° 0 mm 4 m/s 734 mmHg 15%
    Arată mai mult